K5RG-3 Weather Reports


Display with metric or nautical units.
time (UTC)temp
F
wind
direction
speed
MPH
gust
MPH
rain 1hr
in
rain 24hr
in
rain mn
in
humidity
%
barometer
mb
20260502200004 74 10 3.0 16.0 0.00 1.10 0.00 50 1016.8
20260502194509 74 20 7.0 18.0 0.00 1.70 0.00 47 1017.1
20260502193002 74 36 6.0 14.0 0.00 1.70 0.00 49 1017.3
20260502191501 74 347 6.0 14.0 0.00 1.70 0.00 54 1017.5
20260502190059 73 70 6.0 14.0 0.00 1.70 0.00 49 1017.6
20260502184557 73 7 8.0 16.0 0.00 1.70 0.00 51 1017.7
20260502183104 72 107 5.0 18.0 0.00 1.70 0.00 55 1017.8
20260502181554 73 22 4.0 18.0 0.00 1.70 0.00 54 1018.1
20260502163047 69 36 6.0 16.0 0.00 2.78 0.00 64 1018.2
20260502161553 68 28 6.0 17.0 0.00 2.78 0.00 67 1018.2
20260502151523 65 349 5.0 11.0 0.00 2.81 0.00 74 1018.1
20260502123108 55 18 5.0 10.0 0.00 2.97 0.00 90 1016.5
20260502121541 55 46 4.0 10.0 0.00 2.97 0.00 90 1016.3
20260502114535 55 11 2.0 10.0 0.00 2.97 0.00 89 1016.1
20260502113041 55 15 2.0 8.0 0.00 2.97 0.00 88 1015.9
20260502111532 55 21 2.0 12.0 0.00 2.97 0.00 87 1015.7
20260502110030 55 38 4.0 9.0 0.00 2.97 0.00 86 1015.6
20260502104529 55 61 6.0 12.0 0.00 2.97 0.00 87 1015.4
20260502103025 55 25 2.0 7.0 0.00 2.97 0.00 87 1015.0
20260502101522 55 67 3.0 9.0 0.00 2.97 0.00 87 1014.7
20260502091514 55 47 4.0 15.0 0.00 2.97 0.00 88 1013.8
20260502071501 57 13 6.0 12.0 0.00 2.97 0.00 90 1013.7
20260502070113 57 13 5.0 14.0 0.00 2.97 0.00 91 1013.6
20260502064559 57 67 3.0 14.0 0.00 2.97 0.00 91 1013.4
20260502063100 57 344 6.0 12.0 0.00 2.97 0.00 92 1013.4
20260502061556 57 45 7.0 16.0 0.00 2.97 0.00 92 1013.4
20260502060055 57 34 7.0 18.0 0.00 2.97 0.00 92 1013.3
20260502054553 56 28 8.0 20.0 0.00 3.19 0.00 93 1013.5
20260502053055 56 55 5.0 14.0 0.00 3.19 0.00 93 1013.9
20260502051558 56 35 3.0 11.0 0.00 3.19 0.00 94 1013.6
20260502050049 56 56 3.0 13.0 0.00 3.19 0.00 94 1013.8
20260502044545 56 21 6.0 15.0 0.01 3.21 3.19 94 1013.6
20260502043045 56 21 6.0 18.0 0.01 3.21 3.19 94 1013.7
20260502041538 56 6 6.0 20.0 0.01 3.21 3.19 94 1013.5
20260502040035 57 340 5.0 15.0 0.02 3.21 3.19 94 1013.3
20260502034533 57 38 6.0 14.0 0.03 3.20 3.18 94 1012.7
20260502033029 57 315 6.0 14.0 0.05 3.20 3.18 94 1012.4
20260502031526 58 352 5.0 15.0 0.06 3.20 3.18 95 1012.0
20260502030025 58 44 4.0 14.0 0.05 3.19 3.17 95 1011.2
20260502024527 58 19 4.0 13.0 0.04 3.17 3.15 94 1011.8
20260502023020 59 348 5.0 11.0 0.04 3.15 3.13 95 1011.7
20260502021518 59 354 3.0 10.0 0.06 3.14 3.12 95 1011.5
20260502020017 59 25 5.0 12.0 0.06 3.14 3.12 95 1011.4
20260502014514 59 323 4.0 12.0 0.11 3.16 3.11 95 1011.0
20260502013015 59 333 3.0 10.0 0.19 3.14 3.09 95 1010.6
20260502011512 59 43 4.0 11.0 0.23 3.11 3.06 95 1010.1
20260502010020 59 52 4.0 16.0 0.27 3.11 3.06 95 1008.9
20260502004513 59 73 7.0 15.0 0.22 3.11 2.99 94 1009.0
20260502003007 60 9 4.0 14.0 0.14 3.02 2.90 95 1009.5
20260502001508 60 40 5.0 16.0 0.07 2.94 2.82 95 1008.6
20260502000008 60 33 3.0 12.0 0.04 2.91 2.79 95 1008.8
20260501234504 60 48 6.0 15.0 0.02 2.89 2.77 94 1008.7
20260501233002 61 132 5.0 17.0 0.02 2.88 2.76 95 1007.9
20260501231503 61 25 6.0 17.0 0.01 2.87 2.75 95 1007.9
20260501230105 61 63 6.0 21.0 0.01 2.87 2.75 95 1007.9
20260501230002 61 50 6.0 21.0 0.01 2.87 2.75 95 1007.9
20260501224603 61 38 7.0 21.0 0.01 2.87 2.75 95 1008.5
20260501223059 61 70 9.0 21.0 0.03 2.86 2.74 95 1008.4
20260501221600 62 65 7.0 15.0 0.11 2.86 2.74 95 1008.7
20260501214555 62 74 5.0 13.0 0.20 2.86 2.74 95 1008.7
20260501213058 62 82 11.0 23.0 0.26 2.83 2.71 95 1007.0
20260501211551 62 63 7.0 16.0 0.34 2.75 2.63 95 1008.4
20260501210048 63 40 5.0 14.0 0.48 2.70 2.58 95 1008.2
20260501204547 63 75 6.0 16.0 0.86 2.66 2.54 95 1007.7
20260501203053 63 2 6.0 25.0 0.93 2.57 2.45 95 1007.2
20260501201555 63 42 4.0 16.0 0.79 2.41 2.29 95 1007.5